Regional Weather Roundup
Issued by NWS

Home | Current Version | Previous Version | Graphics & Text | Print | Product List | Glossary On
Versions: 1 2 3 4 5 6 7 8 9 10 11 12 13 14 15 16 17 18 19 20 21 22 23 24 25 26 27 28 29 30 31 32 33 34 35 36 37 38 39 40 41 42 43 44 45 46 47 48 49 50
000
ASUS43 KLSX 312059
RWRMO

WEATHER SUMMARY FOR MISSOURI
NATIONAL WEATHER SERVICE SPRINGFIELD MO
300 PM CST SAT JAN 31 2015

NOTE: "FAIR" INDICATES FEW OR NO CLOUDS BELOW 12,000 FEET WITH NO
       SIGNIFICANT WEATHER AND/OR OBSTRUCTIONS TO VISIBILITY.
       CURRENT SKY AND/OR WEATHER CONDITIONS ARE NOT AVAILABLE FOR
       CHILLICOTHE AND FARMINGTON.

MOZ001>031-035>038-043-044-053-054-312200-
...NORTHERN AND WESTERN MISSOURI...

CITY           SKY/WX    TMP DP  RH WIND       PRES   REMARKS
KANSAS CTY INT LGT RAIN  38  36  92 S12       30.08F FOG
KANSAS C DTWN  LGT RAIN  40  36  86 S10       30.09F
LEE`S SUMMIT   LGT RAIN  39  35  86 S9        30.09F
ST JOSEPH      LGT RAIN  38  36  92 S9        30.08F FOG
CHILLICOTHE      N/A     37  35  92 S6        30.15F
KIRKSVILLE     LGT RAIN  37  37 100 S5        30.16F FOG

$$
MOZ066>068-077>081-088>096-101>105-312200-
...SOUTHWEST MISSOURI...

CITY           SKY/WX    TMP DP  RH WIND       PRES   REMARKS
SPRINGFIELD    CLOUDY    45  18  34 SE13      30.09F
JOPLIN         CLOUDY    49  16  26 S10       30.09F

$$
MOZ032>034-039>042-045>050-055>058-069>072-312200-
...CENTRAL MISSOURI...

CITY           SKY/WX    TMP DP  RH WIND       PRES   REMARKS
COLUMBIA       LGT RAIN  34  33  96 S7        30.19F FOG     WCI  28
JEFFERSON CITY LGT RAIN  38  34  85 SE7       30.21F FOG
ROLLA          CLOUDY    36  31  82 NE8       30.14F WCI  30
SEDALIA        CLOUDY    39  37  92 SE10      30.13F
WHITEMAN AFB   DRIZZLE   39  37  93 VRB1      30.12F
OSAGE BEACH    CLOUDY    39  32  75 E5        30.16S

$$
MOZ051-052-059>065-312200-
...EAST CENTRAL MISSOURI...

CITY           SKY/WX    TMP DP  RH WIND       PRES   REMARKS
ST LOUIS INTL  CLOUDY    46  24  42 S6        30.23S
SPIRIT OF STL  CLOUDY    45  24  43 S6        30.22F
ST CHARLES     CLOUDY    40  31  70 CALM      30.23S

$$
MOZ072>076-082>087-097>100-106>115-312200-
...SOUTH CENTRAL AND SOUTHEAST MISSOURI...

CITY           SKY/WX    TMP DP  RH WIND       PRES   REMARKS
CAPE GIRARDEAU CLOUDY    42  30  62 SW12      30.28R
FARMINGTON     CLOUDY    43  21  42 S7        30.27R
POPLAR BLUFF   CLOUDY    42  28  57 CALM      30.25F
WEST PLAINS    CLOUDY    44  18  35 S8        30.17F

$$


USA.gov is the U.S. government's official web portal to all federal, state and local government web resources and services.